TimeEST,TemperatureF,Dew PointF,Humidity,Sea Level PressureIn,VisibilityMPH,Wind Direction,Wind SpeedMPH,Gust SpeedMPH,PrecipitationIn,Events,Conditions,WindDirDegrees,DateUTC
12:52 AM,15.1,12.0,88,29.93,10.0,Calm,Calm,-,N/A,,Overcast,0,1998-01-17 05:52:00
1:52 AM,10.9,8.1,88,29.93,10.0,Calm,Calm,-,N/A,,Clear,0,1998-01-17 06:52:00
2:52 AM,6.1,1.9,83,29.92,10.0,Calm,Calm,-,N/A,,Clear,0,1998-01-17 07:52:00
3:52 AM,1.0,-2.0,87,29.92,10.0,Calm,Calm,-,N/A,,Clear,0,1998-01-17 08:52:00
4:52 AM,-0.9,-6.0,79,29.94,10.0,Calm,Calm,-,N/A,,Clear,0,1998-01-17 09:52:00
5:52 AM,-2.0,-6.0,83,29.97,10.0,Calm,Calm,-,N/A,,Clear,0,1998-01-17 10:52:00
6:52 AM,-5.1,-9.0,83,29.99,10.0,Calm,Calm,-,N/A,,Clear,0,1998-01-17 11:52:00
7:52 AM,-6.0,-9.9,83,30.01,10.0,Calm,Calm,-,N/A,,Clear,0,1998-01-17 12:52:00
8:52 AM,1.0,-2.0,87,30.01,10.0,Calm,Calm,-,N/A,,Clear,0,1998-01-17 13:52:00
9:52 AM,6.1,1.9,83,30.01,8.0,Calm,Calm,-,N/A,,Clear,0,1998-01-17 14:52:00
10:52 AM,12.0,5.0,73,29.99,10.0,Calm,Calm,-,N/A,,Clear,0,1998-01-17 15:52:00
11:52 AM,16.0,8.1,71,29.96,10.0,Calm,Calm,-,N/A,,Clear,0,1998-01-17 16:52:00
12:52 PM,18.0,10.9,74,29.95,10.0,Calm,Calm,-,N/A,,Clear,0,1998-01-17 17:52:00
1:52 PM,21.0,12.9,71,29.94,10.0,Calm,Calm,-,N/A,,Clear,0,1998-01-17 18:52:00
2:52 PM,24.1,17.1,75,29.95,10.0,WNW,3.5,-,N/A,,Clear,300,1998-01-17 19:52:00
3:52 PM,21.0,16.0,81,29.98,10.0,Calm,Calm,-,N/A,,Clear,0,1998-01-17 20:52:00
4:52 PM,16.0,14.0,92,30.01,10.0,Calm,Calm,-,N/A,,Clear,0,1998-01-17 21:52:00
5:10 PM,12.2,10.4,92,29.93,10.0,Calm,Calm,-,N/A,,Scattered Clouds,0,1998-01-17 22:10:00
5:18 PM,12.2,10.4,92,29.94,10.0,Calm,Calm,-,N/A,,Mostly Cloudy,0,1998-01-17 22:18:00
5:52 PM,10.0,8.1,92,30.04,1.8,Calm,Calm,-,N/A,,Scattered Clouds,0,1998-01-17 22:52:00
5:55 PM,8.6,8.6,100,29.94,1.0,Calm,Calm,-,N/A,,Mist,0,1998-01-17 22:55:00
6:03 PM,8.6,6.8,92,29.95,0.5,Calm,Calm,-,N/A,Fog,Light Freezing Fog,0,1998-01-17 23:03:00
6:16 PM,10.4,8.6,92,29.95,1.5,Calm,Calm,-,N/A,,Overcast,0,1998-01-17 23:16:00
6:22 PM,10.4,8.6,92,29.95,3.0,Calm,Calm,-,N/A,,Overcast,0,1998-01-17 23:22:00
6:52 PM,10.0,8.1,92,30.04,7.0,Calm,Calm,-,N/A,,Overcast,0,1998-01-17 23:52:00
7:52 PM,9.0,7.0,92,30.05,10.0,Calm,Calm,-,N/A,,Overcast,0,1998-01-18 00:52:00
8:52 PM,12.0,10.0,92,30.06,10.0,Calm,Calm,-,N/A,,Overcast,0,1998-01-18 01:52:00
9:14 PM,8.6,6.8,92,29.98,10.0,Calm,Calm,-,N/A,,Scattered Clouds,0,1998-01-18 02:14:00
9:36 PM,6.8,5.0,92,29.98,10.0,Calm,Calm,-,N/A,,Mostly Cloudy,0,1998-01-18 02:36:00
9:52 PM,9.0,7.0,92,30.06,10.0,Calm,Calm,-,N/A,,Overcast,0,1998-01-18 02:52:00
10:00 PM,10.4,8.6,92,29.98,10.0,Calm,Calm,-,N/A,,Overcast,0,1998-01-18 03:00:00
10:52 PM,10.9,8.1,88,30.07,8.0,Calm,Calm,-,N/A,,Overcast,0,1998-01-18 03:52:00
11:40 PM,8.6,5.0,85,29.99,1.8,Calm,Calm,-,N/A,,Overcast,0,1998-01-18 04:40:00
11:45 PM,10.4,6.8,85,29.99,0.8,Calm,Calm,-,N/A,,Overcast,0,1998-01-18 04:45:00
11:52 PM,10.0,8.1,92,30.06,0.5,Calm,Calm,-,N/A,Fog,Light Freezing Fog,0,1998-01-18 04:52:00